Network for Lightning and Thunderstorms in Real Time - Real time lightning map
Regions/Countries: current only
List of Stations for "Australia / South Australia" sorted ascending by Involved
(Involved = Number of signals involved in the calculation)
StationCityCommentCountryRegionsStatusLast signalTotalValidInvolvedUsedClosestFarthest
1015Lyrup, South Australia300mm ferrite Hfield/800mm Efi...Australia / South AustraliaOceania 1Offline2023-10-21 08:37000024000 km0 km
1015Lyrup, South Australia300mm ferrite Hfield/800mm Efi...Australia / South AustraliaAsia 1Offline2023-10-21 08:37000024000 km0 km
2105Port LincolnAustralia / South AustraliaSouth America 1Idle2024-05-24 13:49000024000 km0 km
2105Port LincolnAustralia / South AustraliaAfrica 1Idle2024-05-24 13:49000024000 km0 km
2105Port LincolnAustralia / South AustraliaEurope 2Idle2024-05-24 13:49000024000 km0 km
2105Port LincolnAustralia / South AustraliaEurope 3Idle2024-05-24 13:49000024000 km0 km
2105Port LincolnAustralia / South AustraliaEurope 1Idle2024-05-24 13:49000024000 km0 km
2105Port LincolnAustralia / South AustraliaOceania 1Idle2024-05-24 13:49000024000 km0 km
2667Para Hills WestBack To Testing StageAustralia / South AustraliaOceania 1Offline2024-04-15 17:28000024000 km0 km
2953StrathalbynSHR/Hallett/CFS SBYN-02Australia / South AustraliaOceania 1Offline2024-05-24 08:15000024000 km0 km
2353WhyallaMostly relying on e field ante...Australia / South AustraliaAfrica 1Running2024-05-24 19:5318341537110 km9274 km
2353WhyallaMostly relying on e field ante...Australia / South AustraliaEurope 1Running2024-05-24 19:5218531553220 km8146 km
2353WhyallaMostly relying on e field ante...Australia / South AustraliaSouth America 1Running2024-05-24 19:5318341537220 km11067 km
2271TaperooTestingAustralia / South AustraliaAsia 1Running2024-05-24 19:52268241433318 km5109 km
1016Paringa, South Australia300mm ferrite Hfield/200mm Efi...Australia / South AustraliaOceania 1Running2024-05-24 19:52101848972611388 km3026 km
2353WhyallaMostly relying on e field ante...Australia / South AustraliaJapan 1Running2024-05-24 19:5318341537973101 km4999 km
2353WhyallaMostly relying on e field ante...Australia / South AustraliaAsia 1Running2024-05-24 19:53183415371093126 km8435 km
2271TaperooTestingAustralia / South AustraliaJapan 2Running2024-05-24 19:522682412314952 km7538 km
2271TaperooTestingAustralia / South AustraliaOceania 1Running2024-05-24 19:52268241100721696 km3368 km
2349Mil-LelTesting H FieldAustralia / South AustraliaOceania 1Running2024-05-24 19:53847684361481261762 km5023 km
1694Salisbury, South Australia3 x 200mm Ferrite + 300mm E. F...Australia / South AustraliaOceania 1Running2024-05-24 19:531516069381931441702 km5468 km
2976AdelaideAustralia / South AustraliaOceania 1Running2024-05-24 19:522243810282121941689 km4200 km
1248RidgehavenRed E200mm onlyAustralia / South AustraliaOceania 1Running2024-05-24 19:5323494160962701221705 km5476 km
2353WhyallaMostly relying on e field ante...Australia / South AustraliaOceania 1Running2024-05-24 19:52185315532781821698 km5331 km
2175IronbankAustralia / South AustraliaOceania 1Running2024-05-24 19:52254021643102591691 km5128 km
2438Athelstone (IADELA729)2 x 200mm Ferrite, 200mm E-fie...Australia / South AustraliaOceania 1Running2024-05-24 19:53968673553152211700 km5479 km
Select your menu language
češtinadanskdeutschελληνικάenglishespañolsuomeksifrançaismagyaritaliano日本語latviskinederlandsenorskмакедонскиpolskiрусскийсрпскиsvenskatürkукраїнський
If your language is not supported and if you want to adapt the menu language, then write an email to info ☺ blitzortung.org.